リニア彗星

C/2001 B1 ( LINEAR )

English version
Home page
Updated on July 29, 2002

---------------------------------------------------------------------

・ プロフィール

発見日 2001年1月22日
発見光度 17.7等
発見者 Lincoln Laboratory Near-Earth Asteroid Research project

・ 軌道要素

Epoch 2000 Sept. 13.0 TT = JDT 2451800.5
T 2000 Sept. 19.2865 TT                                 Nakano
q   2.927986             (2000.0)            P               Q
z  -0.000195       Peri.  284.8142      -0.0154735      +0.6713076
 +/-0.000007       Node    49.8316      +0.6918869      +0.5422128
e   1.000572       Incl.  104.1343      -0.7218401      +0.5053231
From 117 observations 2001 Jan. 22-Oct. 21, mean residual 0".6.

・ 星図

・ 光度変化

        m1 = 12.6 + 5 logΔ + 3.3 log r

---------------------------------------------------------------------

軌道要素は中野主一氏の計算によるもので、MPCのEphemerides and Orbital Elementsに掲載されたものです。
星図は StellaNavigator Ver.2.0 for Windows (アストロアーツ 編著 / アスキー出版局刊) で作成したものです。
光度グラフはComet for Windowsで作成したものです。

---------------------------------------------------------------------

Copyright(C) Seiichi Yoshida (comet@aerith.net). All rights reserved.